C/2020 N2 ( ATLAS )

Japanese version
Home page
Updated on August 11, 2020

---------------------------------------------------------------------

* Profile

Discovery Date July 13, 2020
Magnitude 18.2 mag
Discoverer Asteroid Terrestrial-Impact Last Alert System (ATLAS) search program

* Orbital Elements

Epoch 2020 Aug. 19.0 TT = JDT 2459080.5
T 2020 Aug. 23.62276 TT                                 Rudenko
q   1.7942803            (2000.0)            P               Q
z  +0.0078496      Peri.  331.16590     +0.24829996     -0.91544394
 +/-0.0013867      Node   257.05708     -0.81469767     -0.37422818
e   0.9859157      Incl.  161.03605     -0.52403706     +0.14803939
From 81 observations 2020 July 13-28, mean residual 0".4.

* Magnitudes Graph

        m1 = 15.3 + 5 log d + 10.0 log r

---------------------------------------------------------------------

The orbital elements are published on M.P.E.C. 2020-P19.
The magnitudes graphs are made with Comet for Windows.

---------------------------------------------------------------------

Copyright(C) Seiichi Yoshida (comet@aerith.net). All rights reserved.